« Back
NWS Peachtree City, Ga » Text Product » GA Regional Weather Roundup


Printer-friendly Version
Current Version              Previous Versions:   1  2  3  4  5  6  7  8  9  

Regional Weather Roundup

488
ASUS42 KFFC 262103
RWRGA
WEATHER ROUNDUP FOR GEORGIA
NATIONAL WEATHER SERVICE PEACHTREE CITY GA
400 PM EST THU FEB 26 2015

NOTE: "FAIR" INDICATES FEW OR NO CLOUDS BELOW 12,000 FEET WITH NO
SIGNIFICANT WEATHER AND/OR OBSTRUCTIONS TO VISIBILITY.

* = USE WITH CAUTION. THE STATIONS MARKED WITH AN ASTERISK MAY NOT
REPORT WEATHER SUCH AS PRECIPITATION, FOG, OR THUNDER AND ARE NOT
QUALITY CONTROLLED BY NWS.

THE REMARK "TC" DENOTES TEMPERATURE READING IN DEGREES CELSIUS.

GAZ001>058-262200-
NORTH GEORGIA

CITY           SKY/WX    TMP DP  RH WIND       PRES   REMARKS
ATLANTA        CLOUDY    38  31  76 NW13      30.00R WCI  30
ATHENS         CLOUDY    41  34  76 NW9       29.97R
CHAMBLEE       CLOUDY    37  30  75 NW9       30.00R WCI  30
PEACHTREE CITY CLOUDY    39  32  76 NW15      30.01R WCI  31
ROME           CLOUDY    39  30  70 N7        30.02R WCI  34
WEST ATLANTA   CLOUDY    38  31  76 NW9       30.01R WCI  31
GAINESVILLE    CLOUDY    38  33  82 W9        29.97R WCI  31
CARTERSVILLE   CLOUDY    37  29  72 NW5       30.03R WCI  33


CITY           SKY/WX    TMP DP  RH WIND       PRES   REMARKS
DALTON*        CLOUDY    36  32  87 CALM      30.02R
LAWRENCEVILLE* CLOUDY    37  28  70 W10       29.97R WCI  30
KENNESAW*      CLOUDY    36  30  80 N6        30.02R WCI  31
$$

GAZ059>098-102>109-262200-
CENTRAL GEORGIA

CITY           SKY/WX    TMP DP  RH WIND       PRES   REMARKS
AUGUSTA-BUSH   CLOUDY    46  36  68 NW7       29.96R
AUGUSTA-DANIEL CLOUDY    47  36  65 NW6       29.96R
COLUMBUS       CLOUDY    48  36  61 NW13      29.98R
MACON          CLOUDY    51  37  58 NW7G16    29.95R
ROBINS AFB     CLOUDY    53  37  56 NW5       29.94R


CITY           SKY/WX    TMP DP  RH WIND       PRES   REMARKS
LAGRANGE*      CLOUDY    44  36  73 N13       30.01R
SYLVANIA*      CLOUDY    47  40  76 NW8       29.96R
MILLEDGEVILLE* CLOUDY    52  41  66 CALM      29.94R
$$

GAZ099>101-110>166-262200-
SOUTH GEORGIA

CITY           SKY/WX    TMP DP  RH WIND       PRES   REMARKS
SAVANNAH       CLOUDY    50  38  63 NW8       29.95R
VALDOSTA       CLOUDY    53  42  66 N10G16    29.94R
ALMA           CLOUDY    48  39  71 NW7       29.97R
ST SIMONS      PTSUNNY   53  40  61 NW6       29.94R
ALBANY         CLOUDY    47  38  71 N8        30.01R
BRUNSWICK      CLOUDY    52  41  66 NW6       29.95R


CITY           SKY/WX    TMP DP  RH WIND       PRES   REMARKS
BAINBRIDGE*    CLOUDY    48  41  76 NW9       29.99S
MOULTRIE*      CLOUDY    48  41  76 N8        29.97R
VIDALIA*       CLOUDY    46  39  76 N6        29.97R
WAYCROSS*      CLOUDY    51  43  73 N8        29.96R
DOUGLAS*       CLOUDY    50  39  66 N7        29.98R
$$



USA.gov is the U.S. government's official web portal to all federal, state and local government web resources and services.